Burley, ID

6:01 AM MST on December 16, 2019 (GMT -0700)
Burley Municipal

Weather History for KBYI - August, 2019

Change the Weather History Date:

Saturday, August 17, 2019

  Actual Average Record
Temperature  
Mean Temperature 65 °F 68 °F  
Max Temperature 80 °F 85 °F 99 °F (1934)
Min Temperature 49 °F 52 °F 40 °F (2009)
Degree Days  
Heating Degree Days 0 1  
Month to date heating degree days 4 10  
Since 1 June heating degree days 128 166  
Since 1 July heating degree days 12 32  
Cooling Degree Days 0 4  
Month to date cooling degree days 101 89  
Year to date cooling degree days 311 302  
Since 1 June cooling degree days 311 296  
Growing Degree Days 14 (Base 50)    
Moisture  
Dew Point 40 °F    
Average Humidity 45    
Maximum Humidity 71    
Minimum Humidity 18    
Precipitation  
Precipitation 0.00 in 0.01 in 0.97 in (1968)
Month to date precipitation 0.09 0.20  
Year to date precipitation 8.21 6.56  
Sea Level Pressure  
Sea Level Pressure 29.81 in    
Wind  
Wind Speed 10 mph (WSW)    
Max Wind Speed 18 mph    
Max Gust Speed 25 mph    
Visibility 10 miles    
Events      
T = Trace of Precipitation, MM = Missing Value Source: NWS Daily Summary

Daily Weather History Graph

Daily Weather History Graph

Search for Another Location

Airport or City:

Astronomy

Aug. 17, 2019 Rise Set
Actual Time 6:43 AM MDT 8:33 PM MDT
Civil Twilight 6:13 AM MDT 9:03 PM MDT
Nautical Twilight 5:36 AM MDT 9:40 PM MDT
Astronomical Twilight 4:56 AM MDT 10:20 PM MDT
Moon 10:01 PM MDT (8/17) 8:37 AM MDT (8/17)
Length of Visible Light 14h 50m
Length of Day
13h 49m
Waning Gibbous, 96% of the Moon is Illuminated
Aug 17
Waning Gibbous
Aug 23
Last Quarter
Aug 30
New
Sep 5
First Quarter
Sep 13
Full

Hourly Weather History & Observations

Time (MDT) Temp. Dew Point Humidity Pressure Visibility Wind Dir Wind Speed Gust Speed Precip Events Conditions
12:53 AM 54.0 °F 43.0 °F 66% 29.82 in 10.0 mi SW 6.9 mph - N/A   Clear
1:53 AM 54.0 °F 41.0 °F 62% 29.81 in 10.0 mi SSW 9.2 mph - N/A   Clear
2:53 AM 54.0 °F 39.0 °F 57% 29.80 in 10.0 mi SW 8.1 mph - N/A   Clear
3:53 AM 55.0 °F 37.9 °F 53% 29.79 in 10.0 mi SW 10.4 mph - N/A   Clear
4:53 AM 53.1 °F 37.0 °F 55% 29.80 in 10.0 mi SW 11.5 mph - N/A   Clear
5:53 AM 51.1 °F 39.0 °F 63% 29.81 in 10.0 mi SW 9.2 mph - N/A   Clear
6:53 AM 48.9 °F 39.0 °F 69% 29.83 in 10.0 mi SW 8.1 mph - N/A   Clear
7:53 AM 55.0 °F 42.1 °F 62% 29.84 in 10.0 mi WSW 8.1 mph - N/A   Clear
8:53 AM 63.0 °F 42.1 °F 46% 29.85 in 10.0 mi WSW 10.4 mph - N/A   Clear
9:53 AM 68.0 °F 42.1 °F 39% 29.85 in 10.0 mi West 12.7 mph - N/A   Clear
10:53 AM 70.0 °F 37.9 °F 31% 29.86 in 10.0 mi West 15.0 mph - N/A   Clear
11:53 AM 72.0 °F 37.0 °F 28% 29.86 in 10.0 mi West 12.7 mph 20.7 mph N/A   Clear
12:53 PM 75.9 °F 39.0 °F 26% 29.85 in 10.0 mi West 13.8 mph - N/A   Clear
1:53 PM 75.9 °F 34.0 °F 22% 29.84 in 10.0 mi West 16.1 mph 24.2 mph N/A   Clear
2:53 PM 78.1 °F 35.1 °F 21% 29.81 in 10.0 mi West 10.4 mph 23.0 mph N/A   Clear
3:53 PM 79.0 °F 36.0 °F 21% 29.79 in 10.0 mi West 11.5 mph 24.2 mph N/A   Clear
4:53 PM 80.1 °F 34.0 °F 19% 29.78 in 10.0 mi West 11.5 mph 19.6 mph N/A   Clear
5:53 PM 79.0 °F 37.0 °F 22% 29.77 in 10.0 mi West 10.4 mph 18.4 mph N/A   Clear
6:53 PM 77.0 °F 37.9 °F 24% 29.77 in 10.0 mi West 9.2 mph - N/A   Clear
7:53 PM 72.0 °F 41.0 °F 33% 29.77 in 10.0 mi West 5.8 mph - N/A   Clear
8:53 PM 64.0 °F 44.1 °F 48% 29.78 in 10.0 mi SSW 8.1 mph - N/A   Clear
9:53 PM 60.1 °F 45.0 °F 57% 29.80 in 10.0 mi SSW 6.9 mph - N/A   Clear
10:53 PM 57.0 °F 45.0 °F 64% 29.81 in 10.0 mi SW 9.2 mph - N/A   Clear
11:53 PM 57.0 °F 43.0 °F 59% 29.80 in 10.0 mi SW 9.2 mph - N/A   Clear